[[{"header":{"parameterUnit":"m.s-1","parameterCategory":1,"la1":30.2992,"la2":30.254,"lo1":-89.0895,"lo2":-89.0443,"dy":0.0025,"dx":0.0025,"nx":19,"ny":19,"refTime":"2026-04-13T09:00:00:Z","depth":0,"parameterNumber":2,"parameterNumberName":"U-component_of_WINDS"},"data":[0,0,0,-2.1612,-2.161,-2.1544,-2.1544,-2.1476,-2.1476,0,0,0,0,0,0,0,0,0,0,0,-2.1641,-2.1641,-2.1612,-2.161,-2.1544,-2.1544,-2.1476,-2.1476,0,0,0,0,0,0,0,0,0,0,0,-2.1641,-2.1641,-2.1641,-2.161,-2.1544,-2.1544,-2.1476,-2.152,0,0,0,0,0,0,0,0,0,0,-2.1581,-2.1619,-2.1641,-2.1641,-2.161,-2.1545,-2.1544,-2.1522,-2.1518,-2.1513,0,-2.1513,0,-2.1494,-2.1472,-2.1472,0,0,0,-2.1602,-2.1623,-2.1596,-2.1641,-2.1609,-2.1545,-2.1572,-2.1519,-2.1514,-2.1508,-2.1512,-2.1509,-2.1492,-2.1472,-2.1472,-2.1477,-2.1477,0,0,-2.1606,-2.1635,-2.16,-2.1593,-2.1605,-2.1574,-2.157,-2.1516,-2.1522,-2.1511,-2.1507,-2.1491,-2.1472,-2.1471,-2.1476,-2.1477,0,0,0,-2.1622,-2.1638,-2.1612,-2.1596,-2.1583,-2.1572,-2.1568,-2.1525,-2.1514,-2.1506,-2.149,-2.1471,-2.1471,-2.1476,-2.1476,-2.1524,0,0,0,-2.1624,-2.1647,-2.1614,-2.1631,-2.1585,-2.1553,-2.1578,-2.1517,-2.151,-2.1491,-2.1471,-2.147,-2.1475,-2.1476,-2.1522,-2.1542,0,0,0,-2.1642,-2.1649,-2.1643,-2.1632,-2.1605,-2.1553,-2.1539,-2.1515,-2.1501,-2.1472,-2.147,-2.1475,-2.1476,-2.152,-2.1539,-2.1552,0,0,0,-2.167,-2.1686,-2.1644,-2.1656,-2.1606,-2.1584,-2.1539,-2.1521,-2.1502,-2.1471,-2.1475,-2.1476,-2.1519,-2.1536,-2.1551,-2.157,-2.158,0,0,-2.1706,-2.1691,-2.1696,-2.1657,-2.165,-2.1592,-2.1591,-2.1546,-2.1516,-2.1491,-2.1491,-2.1523,-2.1538,-2.1552,-2.1629,-2.1638,0,0,0,-2.1717,-2.1721,-2.1712,-2.1696,-2.1662,-2.1635,-2.1587,-2.157,-2.1548,-2.1509,-2.1531,-2.1539,-2.1546,-2.1553,-2.1561,-2.1565,-2.1481,-2.1481,-2.1481,-2.1809,-2.1771,-2.1776,-2.1731,-2.1716,-2.1667,-2.1651,-2.162,-2.1585,-2.1592,-2.1584,-2.1635,-2.1646,-2.1651,-2.1656,-2.1591,-2.1591,-2.1591,-2.1591,-2.1858,-2.1858,-2.1813,-2.1802,-2.1763,-2.1753,-2.1707,-2.1683,-2.1668,-2.1638,-2.1642,-2.1611,-2.1662,-2.1664,-2.1594,-2.1594,-2.1593,-2.1593,-2.1593,-2.1914,-2.1908,-2.1888,-2.1861,-2.1845,-2.1798,-2.1787,-2.1751,-2.1717,-2.1721,-2.1709,-2.1708,-2.1703,-2.1718,-2.1718,-2.1718,-2.1718,-2.1719,-2.1719,-2.198,-2.1957,-2.1951,-2.1918,-2.1904,-2.188,-2.1832,-2.1816,-2.179,-2.1765,-2.1764,-2.173,-2.1674,-2.166,-2.1721,-2.1721,-2.172,-2.172,-2.172,-2.2045,-2.2025,-2.2017,-2.2003,-2.1961,-2.1948,-2.1903,-2.1875,-2.1857,-2.1853,-2.1818,-2.1782,-2.1764,-2.1757,-2.1746,-2.1825,-2.1825,-2.1825,-2.1825,-2.2093,-2.208,-2.2065,-2.2044,-2.202,-2.1979,-2.1972,-2.1935,-2.1894,-2.1881,-2.1864,-2.1846,-2.1842,-2.1826,-2.1819,-2.1808,-2.1901,-2.1901,-2.1901,-2.213,-2.2114,-2.2115,-2.2075,-2.2041,-2.2012,-2.2005,-2.1983,-2.1932,-2.1903,-2.187,-2.1867,-2.1837,-2.183,-2.1799,-2.1788,-2.1767,0,0]},{"header":{"parameterUnit":"m.s-1","parameterCategory":1,"la1":30.2992,"la2":30.254,"lo1":-89.0895,"lo2":-89.0443,"dy":0.0025,"dx":0.0025,"nx":19,"ny":19,"refTime":"2026-04-13T09:00:00:Z","depth":0,"parameterNumber":3,"parameterNumberName":"V-component_of_WINDS"},"data":[0,0,0,3.7536,3.7535,3.7482,3.7481,3.7411,3.7411,0,0,0,0,0,0,0,0,0,0,0,3.7553,3.7553,3.7536,3.7535,3.7482,3.7481,3.7411,3.7411,0,0,0,0,0,0,0,0,0,0,0,3.7554,3.7553,3.7553,3.7535,3.7482,3.7481,3.7411,3.7452,0,0,0,0,0,0,0,0,0,0,3.7504,3.7521,3.7553,3.7553,3.7535,3.7482,3.7481,3.7454,3.7449,3.7436,0,3.7426,0,3.7417,3.7406,3.7406,0,0,0,3.7533,3.7525,3.751,3.7553,3.7534,3.7482,3.7505,3.7451,3.7446,3.743,3.7425,3.7422,3.7416,3.7406,3.7405,3.7338,3.7338,0,0,3.7536,3.7544,3.7514,3.7507,3.7518,3.7507,3.7504,3.7448,3.7442,3.7424,3.742,3.7415,3.7405,3.7405,3.7339,3.7338,0,0,0,3.7546,3.7546,3.7532,3.751,3.7501,3.7506,3.7502,3.7445,3.744,3.742,3.7414,3.7405,3.7404,3.7339,3.7339,3.7336,0,0,0,3.7548,3.7551,3.7533,3.7537,3.7502,3.7472,3.7499,3.7444,3.7437,3.7415,3.7405,3.7403,3.7339,3.7339,3.7336,3.7333,0,0,0,3.7556,3.7552,3.7546,3.7538,3.7515,3.7473,3.7465,3.7442,3.7434,3.7406,3.7403,3.7339,3.7339,3.7337,3.7333,3.7318,0,0,0,3.7567,3.7541,3.7546,3.7515,3.7516,3.7473,3.7465,3.7432,3.7407,3.7404,3.7339,3.7339,3.7337,3.7334,3.7319,3.7306,3.7302,0,0,3.7539,3.7538,3.752,3.7522,3.7481,3.748,3.7438,3.7406,3.7395,3.7357,3.7356,3.7336,3.7333,3.7318,3.7276,3.7273,0,0,0,3.7513,3.75,3.7488,3.7467,3.7445,3.7425,3.7401,3.7389,3.7358,3.7378,3.7326,3.7324,3.7315,3.7309,3.7306,3.7297,3.7336,3.7336,3.7336,3.7482,3.7473,3.7442,3.7427,3.7406,3.7383,3.7364,3.7345,3.7338,3.7327,3.7315,3.7291,3.7284,3.7282,3.7274,3.7308,3.7308,3.7308,3.7308,3.744,3.742,3.7416,3.7385,3.7374,3.7347,3.7323,3.732,3.7292,3.7298,3.729,3.7297,3.7279,3.7271,3.7308,3.7308,3.7308,3.7308,3.7308,3.7418,3.7408,3.7397,3.7367,3.7344,3.7329,3.7303,3.7294,3.7284,3.7276,3.7263,3.7263,3.7262,3.7271,3.7271,3.727,3.727,3.727,3.727,3.74,3.7389,3.737,3.7346,3.7333,3.7313,3.7291,3.7276,3.7257,3.7252,3.7252,3.7247,3.728,3.7288,3.7269,3.7269,3.7269,3.7269,3.727,3.736,3.7369,3.734,3.7326,3.7299,3.7278,3.7267,3.7239,3.7225,3.7213,3.7211,3.7237,3.7234,3.7236,3.7243,3.7213,3.7213,3.7213,3.7213,3.7342,3.7342,3.7311,3.729,3.7269,3.7257,3.7224,3.7206,3.7189,3.718,3.7183,3.7191,3.7194,3.719,3.7193,3.7199,3.7159,3.7159,3.7159,3.7317,3.7315,3.7288,3.7275,3.7254,3.7235,3.7203,3.7178,3.716,3.7157,3.7173,3.7175,3.7188,3.7193,3.7189,3.7194,3.7205,0,0]}]]